Weather History for KEMV - March, 2013

Change the Weather History Date:

Tuesday, March 19, 2013

  Actual Average (KRIC) Record (KRIC)
Temperature  
Mean Temperature 50 °F 49 °F  
Max Temperature 64 °F 61 °F 88 °F (1945)
Min Temperature 35 °F 38 °F 17 °F (1967)
Degree Days  
Heating Degree Days 16 16  
Month to date heating degree days 352  
Since 1 July heating degree days 3288  
Cooling Degree Days 0 0  
Month to date cooling degree days 0  
Year to date cooling degree days 0  
Moisture  
Dew Point 33 °F    
Average Humidity 65    
Maximum Humidity 100    
Minimum Humidity 20    
Precipitation  
Precipitation 0.00 in 0.14 in 1.64 in (1998)
Month to date precipitation 2.42  
Year to date precipitation 8.22  
Snow  
Snow 0.00 in 0.00 in 0.10 in (1981)
Month to date snowfall 0.5  
Since 1 July snowfall 10.1  
Snow Depth -    
Sea Level Pressure  
Sea Level Pressure 29.87 in    
Wind  
Wind Speed 5 mph (WSW)    
Max Wind Speed 17 mph    
Max Gust Speed 29 mph    
Visibility 9 miles    
Events      
T = Trace of Precipitation, MM = Missing Value Source: NWS Daily Summary

Daily Weather History Graph

Daily Weather History Graph

Search for Another Location

Airport or City:

Trip Planner

Search our weather history database for the weather conditions in past years. The results will help you decide how hot, cold, wet, or windy it might be!

Date:

Astronomy

Mar. 19, 2013 Rise Set
Actual Time 7:14 AM EDT 7:21 PM EDT
Civil Twilight 6:48 AM EDT 7:46 PM EDT
Nautical Twilight 6:18 AM EDT 8:17 PM EDT
Astronomical Twilight 5:48 AM EDT 8:47 PM EDT
Moon 12:11 PM EDT (3/19) 1:57 AM EDT (3/19)
Length of Visible Light 12h 58m
Length of Day
12h 06m
Waxing Crescent, 49% of the Moon is Illuminated
Mar 19
Waxing Crescent
Mar 19
First Quarter
Mar 27
Full
Apr 3
Last Quarter
Apr 10
New

Hourly Weather History & Observations

Time (EDT) Temp. Windchill Dew Point Humidity Pressure Visibility Wind Dir Wind Speed Gust Speed Precip Events Conditions
12:15 AM 37.4 °F - 37.4 °F 100% 29.89 in 10.0 mi Calm Calm - N/A   Light Drizzle
12:35 AM 37.4 °F 33.8 °F 37.4 °F 100% 29.90 in - West 4.6 mph - N/A   Overcast
12:55 AM 37.4 °F 34.9 °F 37.4 °F 100% 29.90 in 7.0 mi West 3.5 mph - N/A   Overcast
1:15 AM 37.4 °F 31.4 °F 37.4 °F 100% 29.91 in 7.0 mi WNW 8.1 mph - N/A   Overcast
1:35 AM 37.4 °F 32.1 °F 37.4 °F 100% 29.90 in 10.0 mi WNW 6.9 mph - N/A   Overcast
1:55 AM 37.4 °F - 37.4 °F 100% 29.87 in 10.0 mi Calm Calm - N/A   Overcast
2:15 AM 37.4 °F - 37.4 °F 100% 29.88 in 10.0 mi Calm Calm - N/A   Overcast
2:35 AM 37.4 °F 33.8 °F 37.4 °F 100% 29.87 in 10.0 mi WNW 4.6 mph - N/A   Overcast
2:55 AM 37.4 °F 34.9 °F 37.4 °F 100% 29.87 in 10.0 mi WNW 3.5 mph - N/A   Overcast
3:15 AM 37.4 °F 33.8 °F 37.4 °F 100% 29.86 in 10.0 mi WNW 4.6 mph - N/A   Overcast
3:35 AM 37.4 °F 33.8 °F 37.4 °F 100% 29.85 in 10.0 mi NW 4.6 mph - N/A   Overcast
3:55 AM 35.6 °F - 35.6 °F 100% 29.84 in 10.0 mi Calm Calm - N/A   Overcast
4:15 AM 37.4 °F - 37.4 °F 100% 29.83 in 10.0 mi Calm Calm - N/A   Overcast
4:35 AM 37.4 °F - 37.4 °F 100% 29.84 in 10.0 mi Calm Calm - N/A   Overcast
4:55 AM 37.4 °F 34.9 °F 37.4 °F 100% 29.83 in 10.0 mi WNW 3.5 mph - N/A   Overcast
5:15 AM 37.4 °F - 37.4 °F 100% 29.84 in 10.0 mi Calm Calm - N/A   Overcast
5:35 AM 37.4 °F - 37.4 °F 100% 29.83 in 10.0 mi Calm Calm - N/A   Overcast
5:55 AM 37.4 °F - 37.4 °F 100% 29.84 in 10.0 mi Calm Calm - N/A   Overcast
6:15 AM 37.4 °F - 37.4 °F 100% 29.83 in 4.0 mi Calm Calm - N/A   Overcast
6:35 AM 37.4 °F - 37.4 °F 100% 29.83 in 7.0 mi Calm Calm - N/A   Overcast
6:55 AM 37.4 °F - 37.4 °F 100% 29.83 in 10.0 mi Calm Calm - N/A   Overcast
7:15 AM 37.4 °F - 37.4 °F 100% 29.82 in 10.0 mi Calm Calm - N/A   Overcast
7:35 AM 37.4 °F 34.9 °F 37.4 °F 100% 29.82 in 7.0 mi South 3.5 mph - N/A   Overcast
7:55 AM 37.4 °F 34.9 °F 37.4 °F 100% 29.83 in 7.0 mi South 3.5 mph - N/A   Overcast
8:15 AM 37.4 °F 34.9 °F 37.4 °F 100% 29.83 in 5.0 mi SSW 3.5 mph - N/A   Overcast
8:35 AM 39.2 °F 37.0 °F 39.2 °F 100% 29.83 in 4.0 mi South 3.5 mph - N/A   Overcast
8:55 AM 39.2 °F 35.0 °F 39.2 °F 100% 29.84 in 3.0 mi SW 5.8 mph - N/A   Overcast
9:15 AM 41.0 °F 35.8 °F 41.0 °F 100% 29.85 in 5.0 mi SW 8.1 mph - N/A   Overcast
9:35 AM 41.0 °F 37.1 °F 41.0 °F 100% 29.86 in 10.0 mi WSW 5.8 mph - N/A   Overcast
9:55 AM 42.8 °F 39.3 °F 42.8 °F 100% 29.87 in - WSW 5.8 mph - N/A   Overcast
10:15 AM 44.6 °F 39.7 °F 42.8 °F 93% 29.88 in 10.0 mi SW 9.2 mph - N/A   Mostly Cloudy
10:35 AM 44.6 °F 41.4 °F 42.8 °F 93% 29.88 in 10.0 mi West 5.8 mph - N/A   Scattered Clouds
10:55 AM 46.4 °F 41.9 °F 42.8 °F 87% 29.88 in 10.0 mi WSW 9.2 mph - N/A   Clear
11:15 AM 50.0 °F - 42.8 °F 76% 29.88 in 10.0 mi West 9.2 mph - N/A   Clear
11:35 AM 51.8 °F - 44.6 °F 76% 29.87 in 10.0 mi WSW 6.9 mph - N/A   Clear
11:55 AM 53.6 °F - 42.8 °F 67% 29.87 in - WSW 6.9 mph - N/A   Clear
12:15 PM 53.6 °F - 44.6 °F 72% 29.86 in 10.0 mi WSW 8.1 mph - N/A   Clear
12:35 PM 55.4 °F - 42.8 °F 63% 29.86 in 10.0 mi West 8.1 mph 18.4 mph N/A   Clear
12:55 PM 57.2 °F - 39.2 °F 51% 29.86 in 10.0 mi West 10.4 mph 17.3 mph N/A   Clear
1:15 PM 59.0 °F - 37.4 °F 45% 29.85 in 10.0 mi West 11.5 mph 16.1 mph N/A   Clear
1:35 PM 59.0 °F - 35.6 °F 42% 29.84 in - West 12.7 mph 17.3 mph N/A   Clear
1:55 PM 59.0 °F - 33.8 °F 39% 29.84 in 10.0 mi SW 9.2 mph 16.1 mph N/A   Clear
2:15 PM 60.8 °F - 35.6 °F 39% 29.83 in 10.0 mi SW 8.1 mph 16.1 mph N/A   Clear
2:35 PM 60.8 °F - 33.8 °F 36% 29.83 in 10.0 mi SW 11.5 mph 18.4 mph N/A   Clear
2:55 PM 62.6 °F - 33.8 °F 34% 29.82 in - West 11.5 mph 18.4 mph N/A   Clear
3:15 PM 62.6 °F - 32.0 °F 32% 29.81 in 10.0 mi West 8.1 mph 18.4 mph N/A   Clear
3:35 PM 62.6 °F - 32.0 °F 32% 29.80 in 10.0 mi West 10.4 mph 18.4 mph N/A   Clear
3:55 PM 64.4 °F - 32.0 °F 30% 29.81 in 10.0 mi WSW 9.2 mph 21.9 mph N/A   Clear
4:15 PM 64.4 °F - 26.6 °F 24% 29.82 in 10.0 mi WSW 8.1 mph 17.3 mph N/A   Clear
4:35 PM 64.4 °F - 23.0 °F 21% 29.82 in 10.0 mi WSW 17.3 mph 23.0 mph N/A   Clear
4:55 PM 62.6 °F - 26.6 °F 26% 29.82 in 10.0 mi SW 11.5 mph 20.7 mph N/A   Clear
5:15 PM 64.4 °F - 28.4 °F 26% 29.82 in 10.0 mi WSW 8.1 mph - N/A   Clear
5:35 PM 64.4 °F - 28.4 °F 26% 29.83 in 10.0 mi SW 5.8 mph - N/A   Clear
5:55 PM 64.4 °F - 26.6 °F 24% 29.83 in 10.0 mi WSW 11.5 mph 19.6 mph N/A   Clear
6:15 PM 62.6 °F - 24.8 °F 24% 29.83 in 10.0 mi SW 12.7 mph 17.3 mph N/A   Clear
6:35 PM 62.6 °F - 21.2 °F 20% 29.84 in 10.0 mi West 16.1 mph 28.8 mph N/A   Clear
6:55 PM 60.8 °F - 19.4 °F 20% 29.85 in 10.0 mi West 10.4 mph 17.3 mph N/A   Clear
7:15 PM 59.0 °F - 21.2 °F 23% 29.86 in 10.0 mi West 5.8 mph - N/A   Clear
7:35 PM 57.2 °F - 21.2 °F 25% 29.87 in 10.0 mi WSW 4.6 mph - N/A   Clear
7:55 PM 55.4 °F - 21.2 °F 26% 29.88 in 10.0 mi WSW 8.1 mph - N/A   Clear
8:15 PM 57.2 °F - 23.0 °F 27% 29.89 in 10.0 mi WSW 6.9 mph - N/A   Clear
8:35 PM 55.4 °F - 23.0 °F 29% 29.91 in - West 6.9 mph - N/A   Clear
8:55 PM 55.4 °F - 23.0 °F 29% 29.92 in 10.0 mi West 6.9 mph - N/A   Clear
9:35 PM 53.6 °F - 21.2 °F 28% 29.94 in 10.0 mi West 6.9 mph 17.3 mph N/A   Clear
9:55 PM 51.8 °F - 19.4 °F 28% 29.95 in 10.0 mi West 5.8 mph 16.1 mph N/A   Clear
10:15 PM 51.8 °F - 17.6 °F 26% 29.96 in 10.0 mi West 8.1 mph - N/A   Clear
10:35 PM 51.8 °F - 15.8 °F 24% 29.97 in 10.0 mi WSW 4.6 mph - N/A   Clear
10:55 PM 50.0 °F - 15.8 °F 26% 29.99 in 10.0 mi West 5.8 mph - N/A   Clear
11:15 PM 48.2 °F - 14.0 °F 25% 30.00 in 10.0 mi West 6.9 mph - N/A   Clear
11:35 PM 48.2 °F - 14.0 °F 25% 30.00 in 10.0 mi West 6.9 mph - N/A   Clear
11:55 PM 48.2 °F - 12.2 °F 24% 30.01 in 10.0 mi West 6.9 mph - N/A   Clear